This demonstration page uses our WeatherBlox Daily Observations layout. Learn more.

Left ArrowRight Arrow

Hourly Observations for May 15, 2015

Temp ( °F °C ) Dew Point ( °F °C ) Humidity (%) Winds ( mph kmh ) Pressure ( in mb ) Visibility ( mi km ) Precip ( " mm )
12:16 am 00:16 Clear 61 16 39 4 45 45 SE 6 9 30.15 1021 10 16.0934 N/A
12:36 am 00:36 Partly Cloudy 63 17 39 4 42 42 SE 7 11 30.12 1020 10 16.0934 N/A
12:56 am 00:56 Clear 63 17 39 4 42 42 SSE 6 9 30.12 1020 10 16.0934 N/A
1:16 am 01:16 Clear 63 17 39 4 42 42 SSE 8 13 30.12 1020 10 16.0934 N/A
1:36 am 01:36 Partly Cloudy 63 17 39 4 42 42 SSE 9 15 30.12 1020 10 16.0934 N/A
1:56 am 01:56 Clear 63 17 39 4 42 42 SSE 9 15 30.12 1020 10 16.0934 N/A
2:16 am 02:16 Clear 63 17 41 5 45 45 SSE 9 15 30.12 1020 10 16.0934 N/A
2:36 am 02:36 Partly Cloudy 63 17 41 5 45 45 S 8 13 30.12 1020 10 16.0934 N/A
2:56 am 02:56 Partly Cloudy 63 17 41 5 45 45 SSE 9 15 30.09 1019 10 16.0934 N/A
3:16 am 03:16 Clear 63 17 41 5 45 45 S 9 15 30.09 1019 10 16.0934 N/A
3:36 am 03:36 Partly Cloudy 63 17 41 5 45 45 S 10 17 30.09 1019 10 16.0934 N/A
3:56 am 03:56 Mostly Cloudy 63 17 43 6 49 49 S 9 15 30.09 1019 10 16.0934 N/A
4:16 am 04:16 Cloudy 63 17 45 7 52 52 SSE 9 15 30.09 1019 10 16.0934 N/A
4:36 am 04:36 Mostly Cloudy 61 16 46 8 59 59 SSE 8 13 30.09 1019 10 16.0934 N/A
4:56 am 04:56 Partly Cloudy 61 16 46 8 59 59 S 8 13 30.09 1019 10 16.0934 N/A
5:16 am 05:16 Clear 61 16 46 8 59 59 S 8 13 30.09 1019 10 16.0934 N/A
5:36 am 05:36 Partly Cloudy 61 16 46 8 59 59 S 7 11 30.09 1019 10 16.0934 N/A
5:56 am 05:56 Partly Cloudy 61 16 46 8 59 59 S 8 13 30.06 1018 10 16.0934 N/A
6:17 am 06:17 Partly Cloudy 61 16 46 8 59 59 S 6 9 30.09 1019 10 16.0934 N/A
6:36 am 06:36 Mostly Cloudy 61 16 48 9 63 63 NW 12 19 30.09 1019 10 16.0934 N/A
6:56 am 06:56 Mostly Cloudy 59 15 50 10 72 72 N 5 7 30.09 1019 10 16.0934 N/A
7:16 am 07:16 Partly Cloudy 59 15 52 11 77 77 ENE 3 6 30.09 1019 10 16.0934 N/A
7:36 am 07:36 Partly Cloudy 59 15 50 10 72 72 ESE 6 9 30.09 1019 10 16.0934 N/A
7:56 am 07:56 Sunny 61 16 50 10 68 68 SSE 6 9 30.09 1019 10 16.0934 N/A
8:16 am 08:16 Sunny 64 18 50 10 60 60 SSE 9 15 30.09 1019 10 16.0934 N/A
8:36 am 08:36 Partly Cloudy 64 18 50 10 60 60 S 9 15 30.09 1019 10 16.0934 N/A
8:56 am 08:56 Cloudy 61 16 54 12 77 77 S 8 13 30.09 1019 1.75 2.816345 N/A
9:16 am 09:16 Partly Cloudy 63 17 55 13 77 77 S 6 9 30.09 1019 10 16.0934 N/A
9:36 am 09:36 Partly Cloudy 64 18 55 13 73 73 S 6 9 30.09 1019 10 16.0934 N/A
9:56 am 09:56 Partly Cloudy 66 19 54 12 64 64 SSW 7 11 30.09 1019 10 16.0934 N/A
10:16 am 10:16 Mostly Cloudy 64 18 55 13 73 73 SW 9 15 30.12 1020 10 16.0934 N/A
10:36 am 10:36 Mostly Cloudy 64 18 59 15 83 83 SSW 7 11 30.09 1019 10 16.0934 N/A
10:56 am 10:56 Mostly Cloudy 68 20 61 16 78 78 SSW 12 19 30.12 1020 10 16.0934 N/A
11:16 am 11:16 Partly Cloudy 70 21 57 14 64 64 SW 12 19 30.12 1020 10 16.0934 N/A
11:36 am 11:36 Sunny 70 21 57 14 64 64 SSW 9 15 30.09 1019 10 16.0934 N/A
11:56 am 11:56 Sunny 72 22 55 13 57 57 SW 10 17 30.09 1019 10 16.0934 N/A
12:16 pm 12:16 Sunny 73 23 54 12 50 50 SW 14 22 30.09 1019 10 16.0934 N/A
12:36 pm 12:36 Partly Cloudy 73 23 54 12 50 50 SW 15 24 30.09 1019 10 16.0934 N/A
12:56 pm 12:56 Partly Cloudy 73 23 54 12 50 50 SW 18 30 30.09 1019 10 16.0934 N/A
1:16 pm 13:16 Partly Cloudy 75 24 54 12 47 47 SW 20 31 30.09 1019 10 16.0934 N/A
1:36 pm 13:36 Sunny 77 25 55 13 47 47 SW 10 17 30.06 1018 10 16.0934 N/A
1:56 pm 13:56 Sunny 79 26 54 12 42 42 SSW 15 24 30.06 1018 10 16.0934 N/A
2:17 pm 14:17 Sunny 79 26 52 11 39 39 SW 15 24 30.06 1018 10 16.0934 N/A
2:36 pm 14:36 Sunny 79 26 50 10 37 37 SSW 16 26 30.03 1017 10 16.0934 N/A
2:56 pm 14:56 Sunny 79 26 52 11 39 39 SSW 10 17 30.03 1017 10 16.0934 N/A
3:16 pm 15:16 Sunny 79 26 52 11 39 39 SSW 14 22 30.03 1017 10 16.0934 N/A
3:36 pm 15:36 Sunny 79 26 54 12 42 42 SW 15 24 30.03 1017 10 16.0934 N/A
3:56 pm 15:56 Sunny 81 27 54 12 39 39 S 9 15 30 1016 10 16.0934 N/A
4:16 pm 16:16 Sunny 81 27 54 12 39 39 SW 8 13 30 1016 10 16.0934 N/A
4:36 pm 16:36 Partly Cloudy 81 27 55 13 42 42 SW 13 20 30 1016 10 16.0934 N/A
4:56 pm 16:56 Partly Cloudy 81 27 55 13 42 42 SW 12 19 30 1016 10 16.0934 N/A
5:16 pm 17:16 Mostly Cloudy 82 28 55 13 40 40 SSW 12 19 30 1016 10 16.0934 N/A
5:36 pm 17:36 Partly Cloudy 82 28 52 11 35 35 SW 17 28 30 1016 10 16.0934 N/A
5:56 pm 17:56 Sunny 82 28 54 12 37 37 SW 15 24 30 1016 10 16.0934 N/A
6:16 pm 18:16 Sunny 82 28 54 12 37 37 SW 15 24 30 1016 10 16.0934 N/A
6:36 pm 18:36 Partly Cloudy 81 27 54 12 39 39 SW 13 20 30 1016 10 16.0934 N/A
6:56 pm 18:56 Partly Cloudy 81 27 55 13 42 42 SW 10 17 30 1016 10 16.0934 N/A
7:16 pm 19:16 Sunny 79 26 55 13 45 45 SSW 12 19 30 1016 10 16.0934 N/A
7:36 pm 19:36 Sunny 79 26 55 13 45 45 SW 10 17 30 1016 10 16.0934 N/A
7:56 pm 19:56 Sunny 79 26 55 13 45 45 SW 9 15 30 1016 10 16.0934 N/A
8:16 pm 20:16 Sunny 79 26 55 13 45 45 SW 8 13 30 1016 10 16.0934 N/A
8:36 pm 20:36 Sunny 77 25 55 13 47 47 SW 6 9 30 1016 10 16.0934 N/A
8:56 pm 20:56 Clear 75 24 55 13 50 50 SW 3 6 30 1016 10 16.0934 N/A
9:16 pm 21:16 Clear 75 24 55 13 50 50 Calm 30.03 1017 10 16.0934 N/A
9:36 pm 21:36 Clear 73 23 57 14 57 57 Calm 30 1016 10 16.0934 N/A
9:56 pm 21:56 Clear 73 23 57 14 57 57 SSW 5 7 30.03 1017 10 16.0934 N/A
10:16 pm 22:16 Cloudy 66 19 61 16 83 83 WNW 5 7 30.09 1019 2 3.21868 N/A
10:36 pm 22:36 Cloudy 66 19 N/A N/A NNW 7 11 30.09 1019 10 16.0934 N/A
10:56 pm 22:56 Partly Cloudy 66 19 N/A N/A E 3 6 30.09 1019 10 16.0934 N/A
11:15 pm 23:15 Clear 64 18 N/A N/A ESE 7 11 30.09 1019 10 16.0934 N/A
11:36 pm 23:36 Clear 66 19 N/A N/A S 9 15 30.12 1020 10 16.0934 N/A
11:56 pm 23:56 Partly Cloudy 66 19 N/A N/A S 5 7 30.12 1020 10 16.0934 N/A

Powered by AerisWeather